Location: Newark
(14.1000°N, 87.2167°W)
Time: 07:30:32
(UTC+00:00)

Hubble Space Telescope - Visible Passes

Search period start: 22 July 2019 00:00
Search period end: 01 August 2019 00:00
Orbit: 536 x 540 km, 28.5° (Epoch: 22 July)

Date Brightness Start Highest point End Pass type
(mag) Time Alt. Az. Time Alt. Az. Time Alt. Az.
22 Jul 2.9 09:31:06 19° SE 09:31:06 19° SE 09:33:10 10° E visible
22 Jul 0.9 11:06:57 10° WSW 11:11:03 68° NNW 11:15:09 10° ENE visible
23 Jul 2.9 09:21:14 21° ESE 09:21:14 21° ESE 09:23:02 10° E visible
23 Jul 1.3 10:56:34 10° W 11:00:33 50° NNW 11:04:33 10° NE visible
24 Jul 3.2 09:11:19 20° E 09:11:19 20° E 09:12:46 10° E visible
24 Jul 1.7 10:46:39 13° W 10:50:03 38° NNW 10:53:55 10° NE visible
25 Jul 3.5 09:01:22 17° ENE 09:01:22 17° ENE 09:02:23 10° ENE visible
25 Jul 2.1 10:36:43 14° WNW 10:39:35 30° NNW 10:43:14 10° NE visible
26 Jul 3.8 08:51:24 13° ENE 08:51:24 13° ENE 08:51:55 10° ENE visible
26 Jul 2.5 10:26:44 15° WNW 10:29:09 24° NNW 10:32:32 10° NE visible
27 Jul 2.7 10:16:44 15° NW 10:18:43 20° NNW 10:21:47 10° NNE visible
28 Jul 2.9 10:06:42 14° NW 10:08:18 17° NNW 10:11:03 10° NNE visible
29 Jul 3.1 09:56:40 13° NNW 09:57:55 15° NNW 10:00:17 10° NNE visible
30 Jul 3.3 09:46:38 12° NNW 09:47:33 13° N 09:49:31 10° NNE visible
31 Jul 3.4 09:36:38 12° NNW 09:37:12 12° N 09:38:45 10° NNE visible
